Satellite-Ground Cal/Val Site Overpasses Predictions

Prediction of Satellite NPP Overpassing Cal/Val Site: Antarctic Dome C

Ground Cal/Val Site Location: Latitude: -75.10, Longitude: 123.35; Satellite-Ground Site NADIR distance within 100 km.

Table of predicted overpasses for the next 14.0 days since TLE Epoch: 5/29/2015
Interval Starting Time Ending Time Minimum Distance Time Minimum Distance (km)
1 05/29/2015 07:36:10 05/29/2015 07:36:40 05/29/2015 07:36:25 2.78
2 06/01/2015 14:59:36 06/01/2015 15:00:05 06/01/2015 14:59:51 17.71
3 06/02/2015 14:40:55 06/02/2015 14:41:08 06/02/2015 14:41:02 89.38
4 06/03/2015 07:42:27 06/03/2015 07:42:54 06/03/2015 07:42:41 39.12
5 06/04/2015 07:23:40 06/04/2015 07:24:00 06/04/2015 07:23:50 70.94
6 06/06/2015 15:05:54 06/06/2015 15:06:18 06/06/2015 15:06:06 54.92
7 06/07/2015 14:47:05 06/07/2015 14:47:29 06/07/2015 14:47:17 54.18
8 06/08/2015 07:48:45 06/08/2015 07:49:04 06/08/2015 07:48:55 74.55
9 06/09/2015 07:29:52 06/09/2015 07:30:19 06/09/2015 07:30:06 33.35


NCC Satellite Cal/Val Overpasses Prediction Service
